Wind_Speed
17 16 16 16 15 13 13 13 12 11 10 9 8 8 8 6 3 2 3 2 1 1 1 1 2 2 1 1 2 2 2 3 4 4 5 5 6 5 5 5 4 4
18 16 15 15 15 14 14 14 13 13 11 11 10 9 10 8 5 4 4 4 4 3 2 2 2 1 2 2 1 1 1 2 2 3 4 5 5 6 5 5 5 4
20 18 16 15 14 14 14 15 14 14 12 12 11 11 12 10 7 5 6 6 5 6 5 4 4 3 3 3 3 3 3 3 3 3 4 5 5 6 6 6 6 5
22 20 18 16 15 13 14 15 15 14 13 13 13 13 14 12 9 7 8 7 7 8 7 6 6 5 5 5 4 4 4 4 4 5 5 5 5 6 7 7 7 7
23 22 20 18 16 14 14 15 15 14 14 15 14 14 15 14 12 10 10 9 8 10 9 9 8 7 8 7 5 6 6 5 5 5 4 5 5 5 6 7 7 8
19 21 21 20 18 16 16 16 15 14 14 15 15 15 16 16 14 13 13 12 11 11 11 11 10 10 10 9 8 8 6 6 6 6 5 6 6 6 6 6 7 8
17 18 19 20 18 17 17 17 17 16 15 15 16 16 17 17 16 15 15 14 13 13 13 13 13 12 12 11 10 10 8 8 9 7 4 5 7 8 8 7 7 7
17 17 18 19 19 18 18 18 18 19 18 16 17 17 17 18 17 16 17 16 15 15 15 14 15 14 14 13 12 12 12 12 11 8 5 7 9 9 8 9 9 7
17 16 15 16 17 17 18 19 18 19 20 17 17 17 18 18 18 18 18 18 18 17 17 17 16 16 16 16 14 15 16 15 14 11 10 11 11 7 6 9 11 10
17 20 18 16 16 16 17 18 17 17 19 20 18 17 18 17 18 19 19 19 19 19 19 19 18 18 18 18 17 17 17 17 15 14 13 12 11 9 8 9 11 11
10 15 17 17 18 20 20 19 19 18 19 21 19 18 19 19 18 19 21 21 21 21 20 21 20 20 20 20 19 19 19 18 17 16 15 13 12 12 12 12 13 12
7 8 11 13 16 18 18 19 22 23 23 25 24 22 23 23 21 21 21 22 23 22 21 21 20 20 21 20 19 20 20 19 18 17 16 15 15 14 14 14 14 14
5 6 9 12 14 16 17 17 19 22 25 28 29 29 28 26 25 24 24 24 24 23 23 22 21 21 22 21 20 21 21 20 20 19 17 17 16 15 15 15 15 15
3 5 6 8 9 11 14 15 17 19 22 22 23 25 26 26 26 25 25 25 25 24 24 24 24 24 24 23 22 22 22 22 22 21 19 18 18 17 16 17 17 16
4 5 5 5 6 5 7 10 13 16 18 18 18 19 21 23 23 23 24 24 25 25 25 26 26 26 27 26 24 24 25 25 24 22 20 19 19 17 17 17 17 17
5 6 6 6 6 6 6 8 9 11 13 14 15 17 19 21 21 22 23 23 23 24 24 26 27 28 30 30 29 29 29 28 26 24 22 20 18 16 16 17 16 17
5 5 6 7 7 8 8 8 9 10 10 11 13 15 17 17 18 21 23 23 24 25 25 26 28 29 32 34 33 32 30 27 26 25 22 20 19 17 16 15 15 16
6 6 7 7 7 8 9 9 9 10 10 11 12 13 15 16 17 19 20 21 24 26 27 28 29 29 32 35 35 34 31 27 25 23 22 20 19 18 16 14 15 16
7 7 8 8 8 9 9 9 10 10 11 11 12 13 15 16 17 18 18 18 20 23 26 28 30 31 31 34 36 34 32 28 23 20 20 19 18 18 17 17 17 18
7 7 8 9 10 10 10 11 11 11 12 12 13 13 14 16 17 18 18 18 19 20 23 25 30 32 32 33 34 34 33 29 22 19 19 19 18 19 20 19 20 20
8 8 9 9 10 11 11 12 12 12 12 13 13 14 14 15 15 17 19 19 19 20 21 25 29 32 31 30 30 32 33 28 24 23 22 21 20 20 20 20 20 20
9 9 10 10 11 11 12 12 12 13 13 13 13 14 14 15 15 16 18 19 19 18 22 27 30 32 32 29 28 31 31 27 26 26 24 20 19 19 19 19 19 19
10 10 11 11 11 11 12 13 12 13 13 13 14 14 15 15 16 15 17 19 19 17 22 28 30 32 33 29 27 29 29 26 26 24 20 18 17 17 16 15 16 18
11 11 12 12 12 13 13 13 14 14 14 14 14 15 15 15 15 15 17 19 18 18 25 30 30 31 31 27 27 29 26 23 21 17 15 14 12 12 12 12 13 16
13 14 14 14 14 14 14 15 15 15 15 14 14 15 15 15 15 15 16 16 17 22 29 31 29 29 28 27 27 27 24 20 15 11 10 10 9 9 9 10 12 15
15 15 15 15 15 15 15 16 16 15 15 15 15 15 15 14 14 15 17 19 21 25 29 29 27 27 28 28 26 24 21 18 14 11 10 9 9 9 10 12 13 13
Wind_Direction
191 194 201 199 194 195 194 189 187 188 184 182 191 194 203 230 265 258 250 277 309 330 354 5 17 16 5 39 83 87 60 48 49 44 44 45 42 43 43 43 48 63
194 194 199 201 199 200 202 196 191 193 190 187 191 192 199 227 265 259 253 269 276 282 295 303 316 323 313 317 321 331 3 10 17 23 24 29 33 29 31 36 34 50
201 199 200 203 203 204 207 204 199 197 196 193 193 192 202 231 262 262 262 270 265 274 284 283 288 293 287 292 297 295 307 323 334 348 356 5 13 13 15 19 17 25
209 206 205 207 208 208 209 209 207 203 201 200 199 194 203 233 257 256 263 267 259 270 280 281 286 284 280 287 282 278 290 298 308 323 333 344 353 360 5 7 6 8
217 216 215 214 213 213 214 214 214 213 209 207 207 203 206 229 251 252 259 263 258 265 271 273 279 277 279 285 267 263 278 281 289 305 309 317 333 343 352 358 359 1
221 222 222 223 221 222 224 224 223 223 220 217 218 214 213 230 247 248 253 259 257 261 265 267 270 269 273 277 267 269 274 267 278 298 297 298 312 322 333 343 346 349
226 228 226 226 226 227 230 232 231 231 230 226 226 224 221 233 247 245 247 252 250 252 258 262 265 265 267 267 262 266 262 253 274 294 275 270 298 313 318 326 336 338
232 237 235 232 231 232 233 235 237 238 237 234 232 232 227 231 241 240 241 244 240 241 247 252 258 259 260 260 252 254 259 260 273 282 247 248 283 304 306 310 322 326
234 240 244 240 237 238 240 243 245 246 245 240 235 238 235 231 234 233 234 238 236 235 238 240 246 248 252 255 247 247 259 265 269 267 255 261 278 284 276 286 305 317
241 244 249 249 244 243 246 247 249 250 249 245 240 242 240 234 234 233 229 230 230 231 233 235 239 241 246 251 245 245 256 262 264 262 259 264 269 261 257 268 286 300
232 235 241 248 250 251 250 250 255 258 256 250 244 243 244 240 237 237 233 228 226 227 228 231 234 234 237 244 243 244 252 256 257 259 258 258 257 258 264 271 279 288
216 220 229 242 252 257 259 260 260 257 255 254 250 246 248 246 240 237 235 232 229 227 225 226 228 225 226 233 238 240 246 250 251 256 258 256 257 263 269 275 280 285
237 240 244 250 255 258 263 265 259 251 253 258 256 251 250 250 246 243 239 234 231 231 229 226 226 226 223 226 233 237 241 246 250 254 255 253 257 263 268 274 281 284
272 268 266 266 263 260 260 263 260 256 257 260 258 254 253 253 251 247 243 239 234 232 232 227 226 228 225 223 229 233 236 244 251 254 253 250 255 261 265 272 279 283
303 293 292 291 286 280 270 266 263 260 259 256 251 251 251 249 248 245 241 240 238 235 233 228 225 228 225 222 226 230 236 246 252 252 249 248 254 261 265 271 278 281
311 301 299 297 292 284 277 271 268 267 267 262 257 254 250 246 245 243 241 240 238 235 232 229 227 227 224 224 230 236 242 248 249 246 245 246 250 255 260 268 275 278
312 304 300 296 292 288 284 281 280 278 276 272 266 260 256 252 249 245 242 241 237 232 230 231 229 226 225 229 237 242 242 241 240 240 241 242 246 249 253 262 270 276
307 304 302 296 291 289 287 284 281 278 275 272 266 259 257 257 255 251 247 244 239 233 232 234 230 227 230 235 240 243 238 233 233 237 239 241 245 247 249 254 264 275
304 301 297 293 290 288 285 283 281 277 273 268 262 259 257 254 254 255 253 249 243 238 236 235 232 231 234 237 239 239 236 232 232 235 236 239 242 244 249 257 266 276
298 295 290 288 288 286 283 282 279 274 270 267 263 261 260 258 255 254 253 250 246 241 237 235 233 233 236 238 238 238 238 236 231 227 230 235 240 247 256 266 272 277
293 289 287 287 287 285 284 283 280 275 271 269 266 261 258 259 256 252 251 249 247 244 237 233 234 235 237 240 240 238 238 234 227 226 231 237 244 254 264 271 276 280
285 284 284 286 286 284 284 283 280 277 274 269 267 263 258 256 252 251 254 251 247 242 235 233 235 236 238 242 241 236 232 227 225 229 236 243 251 262 270 276 281 285
277 281 282 283 285 284 283 282 279 278 275 270 267 263 258 255 251 249 252 250 243 234 231 234 235 234 237 240 236 229 224 222 225 231 240 249 258 266 272 278 283 287
279 280 280 281 283 283 282 281 279 277 275 270 265 263 259 256 252 248 248 249 241 229 230 235 235 234 235 232 225 221 218 217 224 234 244 252 259 267 271 273 277 282
281 281 283 284 284 284 283 281 279 277 274 268 263 262 260 256 253 249 245 242 233 227 231 235 236 234 228 217 213 214 213 213 217 225 235 243 247 254 261 266 271 279
280 281 282 283 284 285 284 281 279 275 271 266 261 260 260 258 254 245 240 241 237 232 234 237 236 229 217 208 209 212 212 214 216 217 223 235 245 252 262 271 277 283
Height
1517 1518 1519 1520 1522 1523 1523 1524 1525 1525 1526 1527 1528 1528 1528 1528 1528 1528 1528 1529 1529 1529 1529 1529 1530 1530 1530 1530 1530 1531 1531 1530 1530 1530 1530 1530 1530 1530 1530 1530 1530 1530
1516 1517 1519 1520 1521 1522 1522 1523 1524 1524 1525 1526 1527 1527 1527 1527 1528 1528 1528 1528 1529 1529 1529 1530 1530 1530 1530 1530 1531 1531 1531 1531 1531 1531 1531 1531 1531 1530 1530 1530 1530 1530
1514 1516 1518 1519 1520 1521 1522 1522 1523 1523 1524 1525 1526 1527 1526 1526 1527 1527 1528 1528 1528 1528 1529 1529 1529 1530 1530 1530 1530 1531 1531 1531 1531 1531 1531 1531 1531 1531 1531 1531 1531 1530
1513 1515 1516 1518 1519 1521 1521 1521 1522 1522 1523 1523 1524 1525 1525 1525 1526 1526 1527 1527 1528 1528 1528 1528 1528 1529 1529 1530 1530 1530 1530 1531 1531 1531 1531 1531 1531 1531 1531 1531 1531 1531
1512 1513 1515 1516 1518 1519 1520 1520 1521 1522 1522 1522 1522 1523 1523 1523 1524 1525 1526 1526 1527 1527 1527 1527 1528 1528 1528 1529 1529 1530 1530 1530 1530 1530 1531 1531 1531 1531 1531 1531 1531 1531
1511 1512 1513 1515 1516 1517 1518 1519 1520 1521 1522 1522 1521 1521 1521 1521 1522 1523 1524 1525 1525 1526 1526 1527 1527 1527 1528 1528 1529 1529 1529 1529 1529 1530 1530 1530 1530 1531 1531 1531 1530 1530
1509 1510 1512 1513 1514 1515 1516 1517 1518 1520 1522 1522 1522 1521 1521 1520 1520 1521 1522 1523 1524 1524 1525 1525 1526 1526 1527 1527 1528 1528 1528 1529 1529 1529 1530 1530 1529 1530 1530 1530 1530 1530
1507 1509 1510 1511 1512 1513 1514 1515 1516 1517 1519 1521 1521 1522 1521 1520 1520 1520 1520 1520 1521 1522 1523 1523 1524 1524 1525 1525 1526 1527 1527 1527 1528 1528 1529 1529 1529 1529 1529 1529 1529 1529
1506 1508 1510 1510 1509 1511 1512 1513 1515 1515 1516 1518 1519 1520 1521 1521 1520 1520 1520 1519 1519 1520 1520 1521 1522 1522 1523 1523 1524 1525 1525 1526 1526 1527 1528 1528 1528 1528 1528 1528 1527 1528
1503 1505 1508 1508 1508 1508 1509 1511 1513 1514 1514 1515 1516 1517 1519 1520 1520 1520 1519 1519 1518 1519 1519 1519 1520 1520 1520 1521 1522 1522 1523 1523 1524 1525 1526 1526 1526 1527 1527 1527 1527 1526
1501 1503 1504 1505 1506 1506 1506 1508 1511 1512 1513 1513 1513 1514 1515 1517 1518 1519 1519 1518 1517 1517 1518 1517 1517 1518 1518 1518 1519 1519 1520 1521 1522 1522 1523 1524 1524 1525 1525 1525 1525 1525
1500 1500 1501 1501 1502 1502 1503 1504 1506 1508 1510 1511 1511 1511 1511 1512 1514 1515 1516 1516 1516 1516 1516 1516 1517 1517 1516 1516 1516 1517 1517 1518 1519 1520 1520 1521 1521 1522 1522 1522 1523 1523
1499 1498 1498 1498 1498 1499 1500 1501 1503 1505 1505 1507 1508 1507 1507 1508 1509 1511 1512 1513 1514 1514 1514 1515 1515 1516 1515 1514 1513 1514 1514 1515 1516 1517 1517 1518 1518 1519 1519 1520 1520 1521
1498 1497 1497 1497 1497 1497 1498 1499 1500 1502 1502 1503 1504 1503 1504 1504 1506 1507 1508 1509 1510 1511 1511 1512 1512 1514 1514 1512 1511 1511 1511 1512 1513 1514 1515 1515 1515 1516 1517 1517 1517 1518
1497 1497 1496 1496 1496 1497 1498 1498 1499 1500 1501 1501 1500 1500 1501 1502 1503 1504 1504 1505 1506 1508 1509 1509 1509 1510 1511 1510 1509 1508 1509 1509 1511 1512 1512 1512 1513 1513 1514 1514 1514 1515
1496 1496 1495 1496 1496 1496 1497 1498 1498 1499 1499 1498 1498 1498 1499 1499 1500 1501 1501 1502 1503 1504 1506 1506 1506 1507 1507 1507 1506 1505 1506 1507 1508 1509 1509 1510 1511 1511 1511 1511 1512 1512
1495 1495 1495 1495 1495 1495 1496 1496 1496 1497 1497 1496 1496 1496 1496 1497 1497 1498 1499 1499 1499 1500 1502 1502 1503 1504 1504 1504 1503 1503 1504 1505 1505 1506 1507 1508 1509 1509 1509 1509 1509 1510
1493 1494 1494 1494 1494 1494 1494 1494 1494 1494 1495 1495 1495 1495 1495 1495 1495 1495 1496 1497 1496 1497 1498 1498 1498 1499 1501 1502 1501 1501 1502 1502 1503 1504 1505 1506 1506 1507 1508 1508 1508 1508
1492 1492 1493 1493 1493 1493 1493 1493 1493 1493 1493 1493 1493 1493 1493 1493 1493 1493 1493 1493 1494 1494 1494 1495 1495 1496 1498 1498 1498 1498 1499 1500 1502 1502 1502 1504 1504 1504 1505 1506 1506 1506
1490 1491 1491 1491 1492 1492 1491 1491 1491 1491 1491 1491 1491 1491 1491 1490 1490 1490 1490 1490 1491 1491 1492 1492 1492 1493 1495 1496 1496 1497 1497 1499 1501 1500 1500 1501 1502 1502 1503 1503 1503 1503
1488 1489 1489 1489 1489 1490 1489 1489 1489 1489 1489 1489 1489 1489 1488 1488 1488 1487 1487 1487 1487 1488 1490 1489 1489 1490 1492 1493 1494 1495 1495 1497 1498 1497 1498 1499 1499 1499 1500 1500 1500 1500
1487 1487 1487 1487 1487 1487 1487 1487 1487 1487 1487 1487 1486 1486 1486 1486 1485 1485 1485 1485 1485 1486 1486 1486 1486 1488 1489 1490 1491 1492 1493 1495 1495 1495 1496 1497 1498 1498 1498 1498 1497 1497
1485 1485 1485 1485 1485 1485 1485 1485 1485 1485 1485 1484 1484 1484 1483 1483 1483 1483 1483 1482 1482 1483 1483 1482 1483 1485 1486 1487 1489 1490 1491 1493 1493 1493 1495 1495 1496 1496 1496 1496 1495 1495
1482 1482 1482 1482 1482 1482 1482 1482 1482 1482 1482 1482 1482 1481 1481 1481 1481 1481 1480 1480 1480 1480 1479 1479 1481 1483 1484 1485 1487 1488 1489 1490 1491 1492 1493 1493 1494 1494 1494 1494 1493 1492
1479 1479 1479 1478 1478 1479 1479 1479 1479 1479 1479 1479 1479 1479 1479 1478 1478 1478 1478 1477 1477 1477 1475 1476 1479 1481 1482 1484 1485 1486 1488 1489 1490 1491 1491 1492 1493 1493 1493 1492 1492 1491
1476 1476 1475 1475 1475 1475 1475 1475 1475 1476 1476 1476 1476 1476 1476 1476 1476 1476 1475 1473 1474 1474 1474 1476 1478 1479 1480 1481 1483 1484 1485 1487 1488 1489 1489 1490 1490 1490 1490 1490 1490 1489